SCP
0 0 0 0 0 0 0 0 0 0 0 0 0 0 0 0 0 0 0 0 -0 -0 -0 -0 -0 0 -0 -0 -0 -0 -0 -0 -0 -0 -0 -0 -0 -0 -0 -0 -0 -0 -0 -0 -0 -0 -0 -0 -0
0 0 0 0 0 0 0 0 0 0 0 0 0 0 0 0 0 0 0 0 0 0 0 -0 -0 -0 -0 -0 -0 -0 -0 -0 -0 -0 -0 -0 -0 -0 -0 -0 -0 -0 -0 -0 -0 -0 0 0 0
0 0 0 0 0 0 0 0 0 0 0 0 0 0 0 0 0 0 0 0 0 0 0 0 -0 -0 -0 -0 -0 -0 -0 -0 -0 -0 -0 -0 -0 -0 -0 -0 -0 -0 0 0 0 0 0 0 0
0 0 0 0 0 0 0 0 0 0 0 0 0 0 0 0 0 0 0 0 0 0 0 0 -0 -0 -0 -0 -0 -0 -0 -0 -0 -0 -0 -0 -0 -0 -0 -0 -0 -0 -0 0 0 0 0 0 0
0 0 0 0 0 0 0 0 0 0 0 0 0 0 0 0 0 0 0 0 0 0 0 0 0 -0 -0 -0 -0 -0 -0 -0 -0 -0 -0 -0 -0 -0 -0 -0 -0 -0 0 0 0 0 0 0 0
0 0 0 0 0 0 0 0 0 0 0 0 0 0 0 0 0 0 0 0 0 0 0 0 0 -0 -0 -0 -0 -0 -0 -0 -0 -0 -0 -0 -0 -0 -0 -0 -0 0 0 0 0 0 0 0 0
0 0 0 0 0 0 0 0 0 0 0 0 0 0 0 0 0 0 0 0 0 0 0 0 0 0 0 -0 -0 -0 -0 -0 0 -0 -0 -0 -0 -0 -0 -0 -0 0 0 0 0 0 0 0 0
0 0 0 0 0 0 0 0 0 0 0 0 0 0 0 0 0 0 0 0 0 0 0 0 0 0 0 0 -0 0 0 0 0 0 0 0 0 -0 -0 -0 -0 0 0 0 0 0 0 0 0
0 0 0 0 0 0 0 0 0 0 0 0 0 0 0 0 0 0 0 0 0 0 0 0 0 0 0 0 0 0 -0 0 0 0 0 0 0 0 0 0 0 0 0 0 0 0 0 0 0
0 0 0 0 0 0 0 0 0 0 0 0 0 0 0 0 0 0 0 0 0 0 0 0 0 0 0 0 0 0 0 0 0 0 0 0 0 0 0 0 0 0 0 0 0 0 0 0 0
-0 0 0 0 0 0 0 0 0 0 0 0 0 0 0 0 0 0 0 0 0 0 0 0 0 0 0 0 0 0 0 0 0 0 0 0 0 0 0 0 0 0 0 0 0 0 0 0 0
-0 0 0 0 0 0 0 0 0 0 0 0 0 0 0 0 0 0 0 0 0 0 0 0 0 0 0 0 0 0 0 0 0 0 0 0 0 0 0 0 0 0 0 0 0 0 0 0 0
0 0 0 -0 -0 0 0 -0 0 0 0 0 0 0 0 0 0 0 0 0 0 0 0 0 0 0 0 0 0 0 0 0 0 0 0 0 0 0 0 0 0 0 0 0 0 0 0 0 0
-0 -0 0 0 0 -0 -0 -0 -0 0 -0 0 0 0 0 0 0 0 0 0 0 0 0 0 0 0 0 0 0 0 0 0 0 0 0 0 0 0 0 0 0 0 0 0 0 0 0 0 0
0 -0 -0 -0 0 -0 0 0 0 -0 0 -0 0 0 0 0 0 0 0 0 0 0 0 0 0 0 0 0 0 0 0 0 0 0 0 0 0 0 0 0 0 0 0 0 0 0 0 0 0
0 0 0 0 0 0 0 -0 -0 -0 0 0 0 0 0 0 0 0 0 0 0 0 0 0 0 0 0 0 0 0 0 0 0 0 0 0 0 0 0 0 0 0 0 0 0 0 0 0 0
0 0 0 -0 -0 -0 -0 -0 0 0 0 -0 -0 0 0 0 0 0 0 0 -0 -0 -0 -0 -0 -0 -0 0 0 0 0 0 0 0 0 0 0 0 0 0 0 0 0 0 0 0 -0 0 0
0 0 0 0 0 0 0 -0 0 0 0 0 -0 0 0 0 0 -0 -0 -0 -0 -0 -0 -0 0 0 0 0 0 0 0 0 0 0 0 0 0 0 0 0 0 -0 -0 0 0 0 -0 -0 0
0 0 0 0 0 -0 0 -0 0 0 0 0 0 0 -0 -0 -0 -0 -0 -0 -0 0 0 -0 0 0 0 0 0 0 0 0 0 0 0 0 0 0 0 -0 -0 -0 -0 -0 -0 -0 -0 -0 -0
0 0 0 0 0 0 -0 -0 0 0 0 0 -0 -0 -0 -0 -0 -0 -0 -0 -0 -0 -0 -0 -0 0 0 0 0 0 0 0 0 0 0 0 0 0 0 -0 -0 -0 -0 -0 -0 -0 -0 -0 -0
0 0 0 0 0 0 0 0 0 -0 -0 0 0 0 0 0 -0 -0 -0 -0 -0 -0 -0 -0 -0 0 0 0 0 0 0 0 0 0 0 0 0 0 0 -0 -0 -0 -0 -0 -0 -0 -0 -0 -0
0 0 0 0 0 0 0 0 0 -0 0 0 0 0 0 0 -0 -0 -0 -0 -0 -0 -0 -0 -0 0 0 0 0 0 0 0 0 0 0 0 0 0 0 -0 -0 -0 -0 -0 -0 -0 -0 -0 -0
0 0 0 0 0 0 0 0 0 0 0 0 0 0 0 0 0 -0 -0 -0 -0 -0 -0 0 0 0 0 0 0 0 0 0 0 0 0 0 0 0 0 0 0 0 -0 -0 -0 -0 -0 -0 -0
0 0 0 0 0 0 0 0 0 0 -0 -0 0 0 0 0 0 0 -0 0 -0 0 0 0 0 0 0 0 0 0 0 0 0 0 0 0 0 0 0 0 0 0 0 0 0 0 0 0 0
0 0 0 0 0 0 0 0 -0 0 0 0 -0 -0 0 -0 -0 -0 0 0 0 0 0 0 0 0 0 0 0 0 0 0 0 0 0 0 0 0 0 0 0 0 0 0 0 0 0 0 0
0 0 0 0 0 0 0 0 0 0 0 0 0 0 0 0 0 0 0 0 0 0 0 0 0 0 0 0 0 0 0 0 0 0 0 0 0 0 0 0 0 0 0 0 0 0 0 0 0
0 0 0 0 0 0 0 0 -0 0 0 0 0 0 0 0 0 0 0 0 0 0 0 0 0 0 0 0 0 0 0 0 0 0 0 0 0 0 0 0 0 0 0 0 0 0 0 0 0
0 0 0 0 0 0 0 0 0 0 0 0 0 0 0 0 0 0 0 0 0 0 0 0 0 0 0 0 0 0 0 0 0 0 0 0 0 0 0 0 0 0 0 0 0 0 0 0 0
0 0 0 0 0 0 0 0 0 0 0 0 0 0 0 0 0 0 0 0 0 0 0 0 0 0 0 0 0 0 0 0 0 0 0 0 0 0 0 0 0 0 0 0 0 0 0 0 0
0 0 0 0 0 0 0 0 0 0 0 0 0 0 0 0 0 0 0 0 0 0 0 0 0 0 0 0 0 0 0 0 0 0 0 0 0 0 0 0 0 0 0 0 0 0 0 0 0
Wind_Speed_500mb
12 13 16 6 6 10 7 8 4 17 6 7 20 12 20 23 11 4 10 6 6 18 42 42 47 21 21 27 26 23 16 18 23 23 22 21 23 24 29 28 25 23 24 23 22 19 16 10 9
7 6 11 6 8 8 5 4 11 13 18 12 10 7 22 11 15 14 4 11 7 18 35 46 54 45 29 28 25 21 19 29 31 29 25 22 21 22 20 20 19 19 17 14 13 16 17 12 5
5 6 8 5 7 8 8 5 8 13 22 7 9 20 11 14 21 17 22 12 7 15 28 44 46 46 27 25 22 16 15 21 29 31 26 28 26 24 18 15 9 3 3 5 9 14 16 11 5
4 5 13 5 13 7 7 11 18 9 5 22 18 19 16 28 19 27 20 4 9 12 20 35 38 36 28 21 22 16 15 15 16 17 17 17 15 17 17 15 15 16 12 10 12 14 16 13 9
4 10 8 11 7 8 14 18 27 19 9 28 5 10 12 23 20 23 14 5 9 12 16 21 44 35 34 26 24 19 15 14 14 14 15 14 12 13 15 13 11 12 13 12 12 13 11 10 8
8 8 5 5 11 6 9 32 10 22 23 13 16 11 11 11 19 28 17 17 19 16 10 15 26 40 38 37 31 25 19 15 13 13 12 10 9 9 9 9 8 8 8 10 10 11 11 13 9
10 7 8 13 14 4 7 7 28 16 23 19 13 9 9 15 22 23 24 25 28 24 20 23 17 19 47 44 34 29 23 15 10 7 8 10 12 13 12 4 10 8 5 7 8 7 9 10 10
12 8 9 10 8 6 4 7 7 29 14 3 12 9 7 17 17 25 32 34 35 31 32 33 31 29 19 31 33 29 23 17 12 5 2 1 1 4 6 9 15 17 11 9 8 10 10 9 10
10 8 9 7 5 9 18 8 23 25 33 38 18 19 13 9 14 24 36 35 39 40 41 36 40 35 36 32 28 26 25 19 13 7 3 1 2 3 5 9 13 13 17 13 13 16 15 14 15
20 10 11 9 6 9 20 13 10 13 26 31 22 26 21 14 19 23 30 39 43 42 42 43 38 37 39 39 35 28 23 23 20 17 12 8 3 3 4 6 8 6 9 8 11 16 20 21 21
18 11 11 24 32 30 19 18 9 19 18 19 19 24 28 30 29 31 30 30 39 36 35 40 43 36 32 35 35 37 33 32 30 26 21 21 18 18 14 12 10 11 11 12 11 11 14 15 19
17 41 25 10 16 14 10 13 21 31 14 19 21 20 19 27 34 34 33 36 32 36 32 30 30 35 37 33 32 32 26 25 25 26 22 19 18 19 20 20 22 21 22 20 20 20 20 18 19
26 25 41 47 51 45 40 36 19 29 24 25 26 30 29 25 32 34 35 30 33 37 37 34 29 28 28 25 28 32 31 31 32 31 28 27 26 27 27 27 28 29 29 28 27 26 24 23 22
33 40 23 23 27 24 19 20 5 15 25 22 21 23 28 31 30 29 33 26 28 30 30 33 31 34 34 36 32 37 38 36 33 35 35 34 34 35 35 35 36 36 38 37 36 35 34 34 32
33 16 15 6 4 7 5 14 10 10 5 15 12 12 17 24 21 22 23 26 21 24 26 25 30 29 33 35 36 36 39 37 37 39 38 38 37 37 38 39 40 42 43 41 38 38 38 37 38
1 1 6 8 1 5 3 4 6 5 5 8 10 7 13 16 19 21 21 21 19 20 21 23 25 28 32 33 34 35 34 35 37 37 38 37 38 39 39 41 44 44 44 46 46 46 46 47 47
15 6 10 5 14 2 6 5 16 13 8 12 7 4 5 6 13 16 16 19 19 20 21 22 24 23 25 27 29 31 31 31 34 34 34 35 37 38 39 42 44 45 49 50 53 55 56 55 53
6 9 7 8 13 15 9 5 16 20 19 18 10 3 1 1 6 12 13 14 17 20 21 20 19 22 21 22 25 25 24 27 28 29 31 33 36 37 38 41 44 48 50 53 57 59 61 63 63
16 12 10 4 6 7 8 3 14 20 24 26 20 15 12 8 8 12 14 13 14 15 17 17 18 18 17 17 18 19 21 23 24 26 28 30 32 35 38 41 43 48 52 56 58 60 66 70 74
15 14 6 2 5 6 6 12 15 23 21 34 27 27 25 20 17 17 19 18 18 17 16 15 15 16 15 14 13 15 16 17 20 21 23 26 30 33 36 39 42 43 45 49 55 61 63 66 73
10 9 3 5 5 7 4 11 12 16 36 36 41 39 33 29 26 24 25 26 24 23 21 18 16 14 12 12 11 11 11 12 15 15 18 23 28 31 34 37 39 42 45 49 53 57 60 62 62
7 5 6 8 6 1 8 8 11 12 17 35 53 52 50 42 35 30 31 31 30 26 24 21 19 17 14 11 8 6 5 6 7 11 17 21 24 27 31 35 40 44 44 47 51 52 55 58 62
6 4 6 4 6 7 2 6 13 5 15 29 54 66 61 54 46 40 36 33 31 32 30 27 25 21 17 13 9 6 3 2 4 10 14 17 20 26 30 35 39 42 45 47 49 49 50 53 54
4 5 9 7 5 6 8 8 10 12 19 10 51 75 72 66 60 52 40 35 38 36 36 32 28 24 21 18 14 12 10 8 9 11 13 16 20 25 31 35 39 42 44 46 47 49 49 50 51
6 7 6 10 8 9 3 4 22 14 15 24 44 76 78 74 69 63 56 49 43 42 37 34 32 28 24 23 21 18 15 14 16 17 18 20 24 27 30 34 37 40 44 46 48 50 51 51 52
4 8 8 10 4 8 8 13 12 12 24 34 30 52 70 76 75 72 65 59 48 43 40 39 37 32 31 28 25 24 22 23 24 23 24 25 28 30 34 36 39 42 45 48 50 53 54 54 54
7 5 6 14 2 6 6 15 19 12 15 27 42 39 59 77 81 80 73 68 60 51 45 41 39 36 37 33 31 30 28 30 29 28 31 30 33 35 38 41 42 45 47 51 54 56 59 58 58
3 10 7 6 1 9 9 12 14 11 21 18 32 56 60 66 77 83 81 76 68 60 51 44 43 43 39 39 38 35 31 32 32 34 35 35 35 39 42 43 46 48 50 53 56 59 61 64 62
5 5 5 6 8 10 4 13 16 20 21 31 51 71 66 70 71 80 82 78 72 64 60 54 50 49 46 44 40 38 35 33 35 38 39 39 41 43 45 47 49 53 54 56 60 61 65 68 67
4 11 12 9 12 7 5 17 10 18 20 43 59 72 69 68 73 70 74 75 75 70 66 63 57 53 50 46 45 45 43 40 42 42 42 43 47 48 50 51 54 56 58 59 63 66 67 71 70
Wind_Direction_500mb
311 256 207 226 99 69 115 94 63 2 51 84 65 39 94 56 27 109 331 354 49 68 74 85 74 72 109 113 109 101 99 94 84 86 91 93 90 98 95 92 87 83 78 72 68 57 48 49 60
334 197 194 130 119 143 203 355 84 357 315 150 63 7 46 65 25 331 345 336 94 88 86 92 69 67 118 121 122 118 111 89 84 82 86 88 95 106 121 111 102 98 89 67 37 5 9 16 28
334 145 133 86 84 115 145 22 355 301 33 22 100 58 63 2 339 344 330 339 118 117 98 114 88 76 123 122 118 133 109 103 97 97 93 91 92 97 111 116 116 98 341 338 356 2 14 53 47
239 110 65 53 87 48 49 15 337 334 357 32 104 68 80 11 359 344 332 346 152 150 126 133 129 113 120 126 122 120 115 106 95 82 88 87 86 82 83 93 92 79 79 70 52 49 51 59 50
86 78 88 84 69 106 57 24 44 58 55 31 332 112 79 13 7 8 2 43 128 144 164 150 153 153 149 153 141 133 125 111 100 89 79 71 71 75 77 78 69 52 48 43 32 29 37 49 40
71 82 87 100 93 122 70 26 24 38 32 357 71 84 78 14 40 33 34 76 79 99 130 161 154 167 168 162 155 145 136 122 103 85 66 55 48 50 65 61 50 40 26 20 15 12 9 359 358
79 54 73 89 114 122 50 39 36 35 32 18 17 69 90 71 43 52 63 78 82 89 109 139 126 171 180 169 161 152 143 133 107 74 15 24 21 15 1 355 3 339 6 7 355 345 345 342 331
70 79 88 39 159 61 85 80 44 34 24 346 32 48 44 38 53 80 75 71 81 87 94 100 114 112 130 153 169 152 151 153 156 161 256 264 266 299 288 301 316 308 304 306 305 306 307 303 302
60 65 59 46 95 147 154 102 68 71 66 63 62 68 57 48 102 100 97 82 79 87 81 89 98 102 109 114 126 156 145 139 140 121 152 295 236 241 292 292 294 299 304 299 298 308 310 298 290
49 63 41 6 51 101 96 97 102 85 67 56 50 79 87 105 105 98 89 82 75 77 79 84 84 89 95 93 101 109 128 139 125 119 128 133 120 98 43 345 319 309 340 317 298 298 296 296 303
35 82 105 69 87 95 91 74 80 104 62 78 56 65 84 91 94 89 79 74 77 71 78 81 87 88 92 101 104 109 113 112 105 100 100 92 88 85 78 68 57 43 40 32 18 356 329 312 310
97 56 67 64 50 80 58 82 70 65 92 110 107 91 102 102 89 86 79 78 75 81 73 76 81 89 87 86 90 91 95 97 98 88 84 79 70 61 56 49 42 32 28 25 20 16 14 3 353
61 76 76 90 83 78 92 75 77 72 104 96 95 97 92 95 97 91 84 77 79 73 75 71 76 82 87 90 84 86 83 81 80 81 75 65 61 57 49 44 38 34 32 25 23 18 15 12 2
113 100 98 82 85 92 74 44 53 97 104 72 65 70 72 71 75 94 94 92 89 88 82 83 80 83 86 86 82 85 82 77 75 71 67 62 59 56 52 50 44 37 33 29 25 21 19 16 13
119 96 112 71 97 156 1 33 19 153 37 70 53 66 86 98 93 93 85 88 87 100 96 90 92 87 88 87 87 83 78 78 76 73 70 64 58 53 47 44 40 36 30 25 24 22 18 17 20
61 218 51 6 266 67 260 282 282 211 33 10 3 44 80 99 111 109 102 99 108 105 111 109 93 91 89 87 85 82 79 75 72 69 65 58 54 49 43 41 38 33 28 24 19 16 15 15 15
28 51 19 338 17 3 16 205 215 202 252 304 338 26 65 103 110 107 107 102 103 106 111 112 111 102 93 88 84 80 78 77 73 69 62 56 50 45 38 36 32 27 24 23 21 15 11 9 10
122 96 37 21 343 30 48 101 184 220 255 265 272 248 150 198 138 133 128 116 112 112 116 114 113 105 99 94 88 87 84 78 73 65 58 50 44 40 36 32 28 24 20 19 19 17 11 9 6
109 96 103 319 309 44 15 321 241 242 245 254 247 236 228 224 188 166 157 154 143 135 127 127 121 113 108 98 94 91 79 75 69 60 53 46 40 35 31 28 25 22 18 16 14 15 13 7 4
76 99 65 48 28 65 321 277 250 242 248 242 238 232 223 215 211 192 186 187 178 167 158 147 137 133 128 119 108 95 90 82 71 62 52 45 38 31 26 24 22 19 16 14 13 13 15 14 10
31 95 149 135 47 80 15 284 238 239 233 235 235 238 235 226 220 210 205 201 197 190 184 177 165 157 151 141 123 108 92 79 71 58 46 39 32 26 22 19 16 14 11 12 11 10 9 10 11
66 10 74 104 54 193 75 276 263 226 245 234 236 232 231 226 222 218 215 209 207 200 199 198 193 189 186 177 154 126 105 83 58 38 32 25 20 17 15 11 11 9 7 6 6 5 3 2 2
140 85 52 73 87 67 3 71 266 95 252 239 235 232 231 225 223 220 215 211 207 206 207 207 208 206 208 205 203 209 232 256 350 3 4 2 1 2 2 1 1 360 359 358 356 354 353 353 352
135 87 55 54 63 21 228 133 267 194 215 229 226 230 228 225 223 223 220 217 215 213 213 215 218 217 221 223 230 238 252 281 312 318 321 331 343 350 349 350 349 349 348 349 348 346 344 343 343
65 56 350 356 7 222 164 55 248 241 227 218 214 224 225 224 223 222 220 220 218 217 217 219 223 224 229 234 238 248 257 270 281 285 298 314 328 334 334 335 336 336 337 338 339 337 336 335 334
157 145 157 216 235 266 352 237 249 219 234 231 230 232 227 225 225 225 224 224 223 223 221 222 225 225 232 236 240 246 254 263 271 281 291 305 311 316 320 324 325 327 327 328 328 331 330 328 328
196 183 138 100 71 36 229 279 290 230 256 223 224 229 227 226 225 225 225 226 226 226 227 229 231 232 234 240 241 245 253 260 269 277 286 300 305 309 310 312 314 315 317 318 320 323 324 321 321
186 152 74 1 266 287 280 283 242 250 229 221 222 223 224 224 227 226 226 225 226 228 231 233 235 238 239 242 245 247 256 263 271 276 284 291 297 298 301 303 304 306 307 309 312 314 317 317 316
153 207 67 127 149 193 257 255 217 223 204 208 221 223 223 221 223 224 226 225 226 227 229 232 237 240 239 243 248 251 257 264 269 274 281 287 290 295 297 299 300 300 301 304 305 308 312 312 311
244 218 166 140 230 228 179 263 252 230 226 218 226 228 228 227 228 228 227 226 225 225 227 230 235 241 243 244 246 250 255 260 267 275 283 284 285 287 291 294 297 297 298 300 303 305 306 309 309
Wind_Speed_850mb
12 13 16 6 6 10 7 8 4 17 6 7 20 12 20 23 11 4 10 6 6 18 42 42 47 21 21 27 26 23 16 18 23 23 22 21 23 24 29 28 25 23 24 23 22 19 16 10 9
7 6 11 6 8 8 5 4 11 13 18 12 10 7 22 11 15 14 4 11 7 18 35 46 54 45 29 28 25 21 19 29 31 29 25 22 21 22 20 20 19 19 17 14 13 16 17 12 5
5 6 8 5 7 8 8 5 8 13 22 7 9 20 11 14 21 17 22 12 7 15 28 44 46 46 27 25 22 16 15 21 29 31 26 28 26 24 18 15 9 3 3 5 9 14 16 11 5
4 5 13 5 13 7 7 11 18 9 5 22 18 19 16 28 19 27 20 4 9 12 20 35 38 36 28 21 22 16 15 15 16 17 17 17 15 17 17 15 15 16 12 10 12 14 16 13 9
4 10 8 11 7 8 14 18 27 19 9 28 5 10 12 23 20 23 14 5 9 12 16 21 44 35 34 26 24 19 15 14 14 14 15 14 12 13 15 13 11 12 13 12 12 13 11 10 8
8 8 5 5 11 6 9 32 10 22 23 13 16 11 11 11 19 28 17 17 19 16 10 15 26 40 38 37 31 25 19 15 13 13 12 10 9 9 9 9 8 8 8 10 10 11 11 13 9
10 7 8 13 14 4 7 7 28 16 23 19 13 9 9 15 22 23 24 25 28 24 20 23 17 19 47 44 34 29 23 15 10 7 8 10 12 13 12 4 10 8 5 7 8 7 9 10 10
12 8 9 10 8 6 4 7 7 29 14 3 12 9 7 17 17 25 32 34 35 31 32 33 31 29 19 31 33 29 23 17 12 5 2 1 1 4 6 9 15 17 11 9 8 10 10 9 10
10 8 9 7 5 9 18 8 23 25 33 38 18 19 13 9 14 24 36 35 39 40 41 36 40 35 36 32 28 26 25 19 13 7 3 1 2 3 5 9 13 13 17 13 13 16 15 14 15
20 10 11 9 6 9 20 13 10 13 26 31 22 26 21 14 19 23 30 39 43 42 42 43 38 37 39 39 35 28 23 23 20 17 12 8 3 3 4 6 8 6 9 8 11 16 20 21 21
18 11 11 24 32 30 19 18 9 19 18 19 19 24 28 30 29 31 30 30 39 36 35 40 43 36 32 35 35 37 33 32 30 26 21 21 18 18 14 12 10 11 11 12 11 11 14 15 19
17 41 25 10 16 14 10 13 21 31 14 19 21 20 19 27 34 34 33 36 32 36 32 30 30 35 37 33 32 32 26 25 25 26 22 19 18 19 20 20 22 21 22 20 20 20 20 18 19
26 25 41 47 51 45 40 36 19 29 24 25 26 30 29 25 32 34 35 30 33 37 37 34 29 28 28 25 28 32 31 31 32 31 28 27 26 27 27 27 28 29 29 28 27 26 24 23 22
33 40 23 23 27 24 19 20 5 15 25 22 21 23 28 31 30 29 33 26 28 30 30 33 31 34 34 36 32 37 38 36 33 35 35 34 34 35 35 35 36 36 38 37 36 35 34 34 32
33 16 15 6 4 7 5 14 10 10 5 15 12 12 17 24 21 22 23 26 21 24 26 25 30 29 33 35 36 36 39 37 37 39 38 38 37 37 38 39 40 42 43 41 38 38 38 37 38
1 1 6 8 1 5 3 4 6 5 5 8 10 7 13 16 19 21 21 21 19 20 21 23 25 28 32 33 34 35 34 35 37 37 38 37 38 39 39 41 44 44 44 46 46 46 46 47 47
15 6 10 5 14 2 6 5 16 13 8 12 7 4 5 6 13 16 16 19 19 20 21 22 24 23 25 27 29 31 31 31 34 34 34 35 37 38 39 42 44 45 49 50 53 55 56 55 53
6 9 7 8 13 15 9 5 16 20 19 18 10 3 1 1 6 12 13 14 17 20 21 20 19 22 21 22 25 25 24 27 28 29 31 33 36 37 38 41 44 48 50 53 57 59 61 63 63
16 12 10 4 6 7 8 3 14 20 24 26 20 15 12 8 8 12 14 13 14 15 17 17 18 18 17 17 18 19 21 23 24 26 28 30 32 35 38 41 43 48 52 56 58 60 66 70 74
15 14 6 2 5 6 6 12 15 23 21 34 27 27 25 20 17 17 19 18 18 17 16 15 15 16 15 14 13 15 16 17 20 21 23 26 30 33 36 39 42 43 45 49 55 61 63 66 73
10 9 3 5 5 7 4 11 12 16 36 36 41 39 33 29 26 24 25 26 24 23 21 18 16 14 12 12 11 11 11 12 15 15 18 23 28 31 34 37 39 42 45 49 53 57 60 62 62
7 5 6 8 6 1 8 8 11 12 17 35 53 52 50 42 35 30 31 31 30 26 24 21 19 17 14 11 8 6 5 6 7 11 17 21 24 27 31 35 40 44 44 47 51 52 55 58 62
6 4 6 4 6 7 2 6 13 5 15 29 54 66 61 54 46 40 36 33 31 32 30 27 25 21 17 13 9 6 3 2 4 10 14 17 20 26 30 35 39 42 45 47 49 49 50 53 54
4 5 9 7 5 6 8 8 10 12 19 10 51 75 72 66 60 52 40 35 38 36 36 32 28 24 21 18 14 12 10 8 9 11 13 16 20 25 31 35 39 42 44 46 47 49 49 50 51
6 7 6 10 8 9 3 4 22 14 15 24 44 76 78 74 69 63 56 49 43 42 37 34 32 28 24 23 21 18 15 14 16 17 18 20 24 27 30 34 37 40 44 46 48 50 51 51 52
4 8 8 10 4 8 8 13 12 12 24 34 30 52 70 76 75 72 65 59 48 43 40 39 37 32 31 28 25 24 22 23 24 23 24 25 28 30 34 36 39 42 45 48 50 53 54 54 54
7 5 6 14 2 6 6 15 19 12 15 27 42 39 59 77 81 80 73 68 60 51 45 41 39 36 37 33 31 30 28 30 29 28 31 30 33 35 38 41 42 45 47 51 54 56 59 58 58
3 10 7 6 1 9 9 12 14 11 21 18 32 56 60 66 77 83 81 76 68 60 51 44 43 43 39 39 38 35 31 32 32 34 35 35 35 39 42 43 46 48 50 53 56 59 61 64 62
5 5 5 6 8 10 4 13 16 20 21 31 51 71 66 70 71 80 82 78 72 64 60 54 50 49 46 44 40 38 35 33 35 38 39 39 41 43 45 47 49 53 54 56 60 61 65 68 67
4 11 12 9 12 7 5 17 10 18 20 43 59 72 69 68 73 70 74 75 75 70 66 63 57 53 50 46 45 45 43 40 42 42 42 43 47 48 50 51 54 56 58 59 63 66 67 71 70
Wind_Direction_850mb
311 256 207 226 99 69 115 94 63 2 51 84 65 39 94 56 27 109 331 354 49 68 74 85 74 72 109 113 109 101 99 94 84 86 91 93 90 98 95 92 87 83 78 72 68 57 48 49 60
334 197 194 130 119 143 203 355 84 357 315 150 63 7 46 65 25 331 345 336 94 88 86 92 69 67 118 121 122 118 111 89 84 82 86 88 95 106 121 111 102 98 89 67 37 5 9 16 28
334 145 133 86 84 115 145 22 355 301 33 22 100 58 63 2 339 344 330 339 118 117 98 114 88 76 123 122 118 133 109 103 97 97 93 91 92 97 111 116 116 98 341 338 356 2 14 53 47
239 110 65 53 87 48 49 15 337 334 357 32 104 68 80 11 359 344 332 346 152 150 126 133 129 113 120 126 122 120 115 106 95 82 88 87 86 82 83 93 92 79 79 70 52 49 51 59 50
86 78 88 84 69 106 57 24 44 58 55 31 332 112 79 13 7 8 2 43 128 144 164 150 153 153 149 153 141 133 125 111 100 89 79 71 71 75 77 78 69 52 48 43 32 29 37 49 40
71 82 87 100 93 122 70 26 24 38 32 357 71 84 78 14 40 33 34 76 79 99 130 161 154 167 168 162 155 145 136 122 103 85 66 55 48 50 65 61 50 40 26 20 15 12 9 359 358
79 54 73 89 114 122 50 39 36 35 32 18 17 69 90 71 43 52 63 78 82 89 109 139 126 171 180 169 161 152 143 133 107 74 15 24 21 15 1 355 3 339 6 7 355 345 345 342 331
70 79 88 39 159 61 85 80 44 34 24 346 32 48 44 38 53 80 75 71 81 87 94 100 114 112 130 153 169 152 151 153 156 161 256 264 266 299 288 301 316 308 304 306 305 306 307 303 302
60 65 59 46 95 147 154 102 68 71 66 63 62 68 57 48 102 100 97 82 79 87 81 89 98 102 109 114 126 156 145 139 140 121 152 295 236 241 292 292 294 299 304 299 298 308 310 298 290
49 63 41 6 51 101 96 97 102 85 67 56 50 79 87 105 105 98 89 82 75 77 79 84 84 89 95 93 101 109 128 139 125 119 128 133 120 98 43 345 319 309 340 317 298 298 296 296 303
35 82 105 69 87 95 91 74 80 104 62 78 56 65 84 91 94 89 79 74 77 71 78 81 87 88 92 101 104 109 113 112 105 100 100 92 88 85 78 68 57 43 40 32 18 356 329 312 310
97 56 67 64 50 80 58 82 70 65 92 110 107 91 102 102 89 86 79 78 75 81 73 76 81 89 87 86 90 91 95 97 98 88 84 79 70 61 56 49 42 32 28 25 20 16 14 3 353
61 76 76 90 83 78 92 75 77 72 104 96 95 97 92 95 97 91 84 77 79 73 75 71 76 82 87 90 84 86 83 81 80 81 75 65 61 57 49 44 38 34 32 25 23 18 15 12 2
113 100 98 82 85 92 74 44 53 97 104 72 65 70 72 71 75 94 94 92 89 88 82 83 80 83 86 86 82 85 82 77 75 71 67 62 59 56 52 50 44 37 33 29 25 21 19 16 13
119 96 112 71 97 156 1 33 19 153 37 70 53 66 86 98 93 93 85 88 87 100 96 90 92 87 88 87 87 83 78 78 76 73 70 64 58 53 47 44 40 36 30 25 24 22 18 17 20
61 218 51 6 266 67 260 282 282 211 33 10 3 44 80 99 111 109 102 99 108 105 111 109 93 91 89 87 85 82 79 75 72 69 65 58 54 49 43 41 38 33 28 24 19 16 15 15 15
28 51 19 338 17 3 16 205 215 202 252 304 338 26 65 103 110 107 107 102 103 106 111 112 111 102 93 88 84 80 78 77 73 69 62 56 50 45 38 36 32 27 24 23 21 15 11 9 10
122 96 37 21 343 30 48 101 184 220 255 265 272 248 150 198 138 133 128 116 112 112 116 114 113 105 99 94 88 87 84 78 73 65 58 50 44 40 36 32 28 24 20 19 19 17 11 9 6
109 96 103 319 309 44 15 321 241 242 245 254 247 236 228 224 188 166 157 154 143 135 127 127 121 113 108 98 94 91 79 75 69 60 53 46 40 35 31 28 25 22 18 16 14 15 13 7 4
76 99 65 48 28 65 321 277 250 242 248 242 238 232 223 215 211 192 186 187 178 167 158 147 137 133 128 119 108 95 90 82 71 62 52 45 38 31 26 24 22 19 16 14 13 13 15 14 10
31 95 149 135 47 80 15 284 238 239 233 235 235 238 235 226 220 210 205 201 197 190 184 177 165 157 151 141 123 108 92 79 71 58 46 39 32 26 22 19 16 14 11 12 11 10 9 10 11
66 10 74 104 54 193 75 276 263 226 245 234 236 232 231 226 222 218 215 209 207 200 199 198 193 189 186 177 154 126 105 83 58 38 32 25 20 17 15 11 11 9 7 6 6 5 3 2 2
140 85 52 73 87 67 3 71 266 95 252 239 235 232 231 225 223 220 215 211 207 206 207 207 208 206 208 205 203 209 232 256 350 3 4 2 1 2 2 1 1 360 359 358 356 354 353 353 352
135 87 55 54 63 21 228 133 267 194 215 229 226 230 228 225 223 223 220 217 215 213 213 215 218 217 221 223 230 238 252 281 312 318 321 331 343 350 349 350 349 349 348 349 348 346 344 343 343
65 56 350 356 7 222 164 55 248 241 227 218 214 224 225 224 223 222 220 220 218 217 217 219 223 224 229 234 238 248 257 270 281 285 298 314 328 334 334 335 336 336 337 338 339 337 336 335 334
157 145 157 216 235 266 352 237 249 219 234 231 230 232 227 225 225 225 224 224 223 223 221 222 225 225 232 236 240 246 254 263 271 281 291 305 311 316 320 324 325 327 327 328 328 331 330 328 328
196 183 138 100 71 36 229 279 290 230 256 223 224 229 227 226 225 225 225 226 226 226 227 229 231 232 234 240 241 245 253 260 269 277 286 300 305 309 310 312 314 315 317 318 320 323 324 321 321
186 152 74 1 266 287 280 283 242 250 229 221 222 223 224 224 227 226 226 225 226 228 231 233 235 238 239 242 245 247 256 263 271 276 284 291 297 298 301 303 304 306 307 309 312 314 317 317 316
153 207 67 127 149 193 257 255 217 223 204 208 221 223 223 221 223 224 226 225 226 227 229 232 237 240 239 243 248 251 257 264 269 274 281 287 290 295 297 299 300 300 301 304 305 308 312 312 311
244 218 166 140 230 228 179 263 252 230 226 218 226 228 228 227 228 228 227 226 225 225 227 230 235 241 243 244 246 250 255 260 267 275 283 284 285 287 291 294 297 297 298 300 303 305 306 309 309